Location: Bratislava
(48.1517°N, 17.1093°E)
Time: 16:51:23
(UTC+02:00)

ISS - Pass Details

Date: 25 April 2024
Orbit: 409 x 414 km, 51.6° (Epoch: 21 May)

Event Time Altitude Azimuth Distance (km) Brightness Sun altitude
Exits shadow 04:42:11 15° 227° (SW) 1,232 -2.0 -9.8°
Maximum altitude 04:44:49 56° 151° (SSE) 492 -3.4 -9.5°
Drops below altitude 10° 04:48:05 10° 72° (ENE) 1,478 0.5 -9.0°
Sets 04:50:11 0° 68° (ENE) 2,342 2.2 -8.7°
